Terminal Aerodrome Forecast
Issued by NWS

Home | Current Version | Previous Version | Text Only | Print | Product List | Glossary On
Versions: 1 2 3 4 5 6 7 8 9 10 11 12 13 14 15 16 17 18 19 20 21 22 23 24 25 26 27 28 29
000
FTUS46 KOTX 200530
TAFSFF
TAF
KSFF 200530Z 2006/2106 VRB03KT P6SM SCT090 SCT200
     FM201600 21007KT P6SM BKN200
     FM210000 27004G10KT P6SM VCTS BKN100CB BKN200=

USA.gov is the U.S. government's official web portal to all federal, state and local government web resources and services.